Tracking 28125 objects as of 3-Oct-2023
HD Live streaming from Space Station
objects crossing your sky now

STARLINK-3653

Track STARLINK-3653 now!
10-day predictions
STARLINK-3653 is classified as:


NORAD ID: 52000
Int'l Code: 2022-025AW
Perigee: 545.8 km
Apogee: 548.0 km
Inclination: 53.2 °
Period: 95.4 minutes
Semi major axis: 6917 km
RCS: Unknown
Launch date: March 9, 2022
Source: United States (US)
Launch site: AIR FORCE EASTERN TEST RANGE (AFETR)
Your satellite tracking list
Your tracking list is empty




NASA's NSSDC Master Catalog

Two Line Element Set (TLE):
1 52000U 22025AW  23275.80787040  .00001735  00000-0  12707-3 0  9997
2 52000  53.2193  49.3778 0001614  82.3619 277.7556 15.08842984 88263
Source of the keplerian elements: AFSPC